Theta_e
308 308 308 309 310 310 311 311 312 312 312 312 313 313 313 313 313 313 313 312 312 311 310 309 310 310 310 309 309 309 310 311 311 312 313 313 314 315 315 315 314 312 312 311 311 311 311 312 313 315 317 319 319 319 319 319 320 319 328 333 324 324 321 317 322 319 319 320 316 315 316 316 316 316 316 316 316 316 316 316 316 317 319 319 318 318 315 314
308 308 308 309 310 310 311 312 312 312 312 312 313 313 313 313 312 312 312 312 311 310 309 309 310 310 310 309 309 309 310 311 311 312 313 314 314 315 315 314 312 311 311 311 312 312 312 313 314 316 318 320 319 319 318 318 319 319 327 329 328 331 319 314 318 315 316 318 315 315 316 316 316 315 315 316 314 315 316 317 317 318 317 317 317 318 316 314
308 307 307 308 309 310 311 312 312 312 312 312 312 312 312 312 312 312 312 311 310 309 309 309 310 310 310 309 309 309 310 311 312 312 313 315 314 315 315 312 311 311 311 312 313 313 314 314 315 316 318 318 319 319 318 318 318 318 324 328 328 326 317 314 316 314 316 316 315 314 315 315 315 315 315 315 313 314 316 317 318 318 316 316 318 319 318 316
308 308 307 307 309 310 311 312 313 312 312 312 312 311 311 311 311 311 311 310 309 309 309 310 310 311 310 309 309 309 310 311 312 312 314 316 315 314 313 311 311 311 312 312 314 315 315 314 315 316 316 317 318 318 317 318 317 316 325 331 323 317 316 316 315 316 316 316 315 315 315 315 315 315 315 314 314 314 314 315 317 317 315 316 318 319 319 318
308 308 307 307 308 309 310 311 312 312 312 311 311 310 310 310 310 310 310 309 309 309 309 310 310 311 310 309 309 310 311 312 312 311 314 316 314 313 312 311 311 311 311 312 314 315 314 314 314 315 315 315 317 317 317 318 317 316 318 321 317 314 318 317 315 317 315 315 315 314 314 315 315 315 314 314 317 317 315 315 316 315 315 315 316 317 318 319
309 308 307 307 307 308 309 310 311 311 311 310 310 310 310 309 309 309 309 309 309 309 309 310 310 310 311 309 309 311 311 312 313 313 314 315 313 311 311 311 311 311 311 312 313 314 314 314 314 314 313 314 316 318 318 316 317 319 316 314 315 316 317 316 315 316 315 315 315 313 315 315 315 315 315 313 316 317 315 316 316 315 316 315 316 316 317 318
308 308 307 307 307 307 308 308 309 309 309 309 309 309 309 309 309 309 309 309 309 309 310 310 311 310 311 309 309 310 312 313 315 315 315 315 312 311 311 311 311 311 311 312 312 313 314 313 314 313 313 314 315 316 317 316 316 320 318 314 315 316 316 316 315 316 315 315 315 315 315 315 315 316 315 314 315 316 316 317 316 316 316 316 317 316 316 316
308 308 308 307 307 307 307 308 308 308 309 309 309 309 309 309 309 309 310 309 310 310 310 310 311 310 311 310 309 310 311 313 315 315 315 314 312 311 311 311 311 311 311 311 312 313 314 314 313 313 313 313 315 315 315 315 315 317 317 314 315 315 316 316 315 316 316 315 315 316 315 315 315 315 315 315 316 316 316 317 316 316 316 316 317 317 316 316
309 308 308 307 307 307 307 308 308 308 309 309 309 309 309 310 309 310 310 310 310 310 310 310 310 310 311 309 309 310 310 312 314 315 315 313 312 312 311 311 312 311 312 312 313 313 314 314 314 314 314 313 314 315 314 316 315 314 315 315 314 314 315 315 315 315 315 316 315 316 316 315 315 315 316 316 316 316 316 316 316 316 316 317 316 316 316 315
309 308 308 307 307 307 308 308 308 309 309 309 309 309 310 310 310 310 310 310 310 310 310 310 310 310 310 309 309 312 313 313 314 315 314 313 312 312 312 312 312 312 312 313 313 314 314 315 315 314 314 314 314 314 313 315 316 314 314 314 314 314 314 315 315 315 315 315 315 316 317 316 314 315 318 317 316 316 316 316 316 316 316 316 317 316 317 316
309 308 308 307 307 307 308 308 308 309 309 309 309 310 310 310 310 310 310 310 310 310 310 310 310 310 310 309 309 313 315 315 315 314 313 312 312 312 312 312 312 312 313 314 314 314 315 315 316 315 315 315 315 314 314 315 316 315 315 315 314 313 314 314 315 314 315 315 314 316 315 314 315 316 318 316 316 317 316 316 315 316 316 316 317 316 316 317
310 308 307 307 307 307 308 308 309 309 309 309 310 310 310 310 310 310 310 310 310 310 310 310 310 310 310 309 309 314 317 316 315 314 313 313 313 313 313 313 313 314 314 314 314 315 315 316 315 315 315 315 315 315 315 316 316 315 316 318 317 318 318 315 314 314 315 316 315 315 314 315 317 317 317 316 316 317 316 316 316 316 316 316 317 316 316 316
310 308 308 307 307 307 308 308 308 309 309 310 310 310 310 310 310 310 310 309 310 310 310 310 309 310 310 309 310 313 316 316 314 313 314 314 313 313 314 314 315 316 315 314 315 315 315 315 315 315 315 314 315 314 316 316 315 316 315 318 320 322 321 314 313 315 314 316 315 313 314 319 320 315 315 316 315 316 316 316 316 316 317 316 316 316 316 316
310 308 307 307 307 308 308 308 309 309 309 310 310 310 310 310 310 310 310 309 310 309 310 309 309 310 309 311 313 311 313 315 313 313 314 314 314 315 315 315 316 316 316 316 314 314 314 316 315 316 315 315 315 314 318 316 316 318 313 319 324 318 321 318 312 315 315 315 315 313 315 321 322 315 314 316 315 315 315 316 316 316 316 316 316 316 316 316
310 308 307 308 307 308 308 308 309 309 309 309 310 310 310 310 310 309 309 309 309 309 309 308 309 310 308 312 315 312 312 314 313 313 314 315 315 315 316 317 317 317 317 316 314 314 314 316 316 316 315 315 315 316 321 320 320 322 314 320 324 315 323 324 313 313 316 315 315 314 317 321 320 315 315 316 316 315 315 316 316 316 316 316 316 316 316 316
309 308 307 307 307 308 308 308 308 309 309 309 309 310 310 309 309 308 308 308 309 308 308 308 309 310 309 312 315 314 313 313 313 314 314 315 315 316 317 317 317 317 316 314 314 314 315 316 315 316 315 315 318 320 324 325 326 327 317 320 324 317 321 323 314 312 314 315 315 313 316 321 319 315 316 316 315 316 315 316 316 316 317 316 316 316 316 317
308 308 307 307 307 307 307 308 308 308 309 309 309 309 308 308 307 306 307 306 307 307 307 308 309 310 310 312 315 314 314 313 313 314 314 314 314 315 316 317 317 316 316 314 314 315 315 316 315 316 316 314 318 323 322 320 322 323 318 319 323 319 318 321 319 314 312 315 317 315 315 321 320 314 315 316 315 315 315 316 317 316 316 317 317 317 317 317
307 307 307 307 307 307 308 308 308 308 309 308 308 307 306 306 305 306 306 306 307 307 309 310 309 312 312 312 315 314 314 313 313 314 314 313 314 314 315 317 317 317 316 315 315 316 316 315 316 320 318 314 318 324 325 322 322 323 320 320 320 317 317 322 321 315 314 316 317 317 316 320 320 314 314 316 316 315 316 316 316 317 317 317 317 317 317 317
307 307 307 307 307 307 307 308 308 308 308 307 306 305 305 305 305 306 306 307 309 309 311 312 310 313 313 312 314 314 313 313 313 313 313 313 314 313 315 316 316 317 316 317 317 316 316 316 317 320 319 317 318 322 329 328 325 326 326 328 325 320 318 320 320 315 313 317 318 319 318 318 319 316 314 316 316 314 314 316 316 317 317 317 317 317 317 317
307 306 306 307 307 307 307 307 307 307 307 306 305 305 306 308 310 311 309 308 310 311 312 312 310 312 313 311 313 314 313 313 312 313 313 314 314 314 315 315 317 317 317 321 319 314 318 321 320 321 319 319 319 321 326 325 322 322 323 327 326 322 319 318 319 315 311 316 320 319 319 318 319 318 313 313 315 312 311 313 314 316 316 316 317 317 317 317
307 306 306 306 306 306 306 306 306 306 306 305 305 306 308 309 312 312 310 309 311 312 312 311 311 313 312 311 314 315 313 313 312 313 314 314 315 315 316 316 317 318 317 318 317 316 321 322 321 325 323 319 319 320 321 319 320 322 324 326 323 320 319 316 317 318 312 314 320 319 319 318 317 317 312 310 311 311 311 312 313 315 315 316 316 316 317 317
308 308 307 306 306 305 305 305 305 305 305 305 305 307 307 308 311 310 308 308 310 312 313 311 311 313 313 312 315 315 313 314 313 314 314 314 316 316 316 318 319 320 316 315 319 320 322 324 325 323 315 315 317 317 319 322 326 328 326 324 322 319 318 317 318 319 315 314 320 322 320 317 316 315 312 310 310 312 312 312 313 315 314 314 315 316 316 316
310 310 309 307 306 306 305 305 305 304 305 306 307 308 307 308 311 310 307 308 309 311 313 312 312 313 314 314 315 314 313 314 314 314 314 314 316 315 316 318 319 321 318 318 323 321 321 325 323 315 310 315 318 316 319 322 324 329 327 322 322 321 319 320 319 318 315 314 318 321 319 317 316 319 318 311 310 313 314 314 314 315 315 315 316 315 316 315
313 312 311 310 307 307 307 306 305 305 306 307 308 309 308 308 311 309 308 309 310 312 313 311 312 313 314 314 314 314 313 313 314 313 313 314 315 315 316 316 318 320 319 320 321 321 323 320 314 312 314 319 319 317 321 322 318 323 332 331 325 323 321 320 319 318 316 315 318 319 320 323 324 329 331 318 310 311 311 312 314 315 315 316 317 316 316 316
315 314 313 312 310 309 308 307 306 306 307 309 310 309 308 310 311 309 310 312 311 311 311 311 312 313 313 314 314 314 313 313 314 312 312 314 314 316 316 315 317 320 319 319 319 321 322 315 312 315 318 320 320 321 324 325 320 318 328 330 324 326 325 321 323 323 320 318 317 316 318 329 333 330 329 320 313 313 310 308 312 315 316 316 318 317 317 317
316 315 315 314 313 311 309 309 307 306 309 311 310 309 309 310 310 310 312 314 313 311 310 311 312 312 313 313 314 313 313 315 315 313 313 313 315 316 316 315 315 317 317 316 318 320 318 313 315 321 322 322 321 321 320 323 323 317 318 321 322 329 327 321 322 320 322 319 314 317 319 322 324 320 318 317 317 320 315 309 311 314 316 315 316 317 317 318
318 316 315 316 315 311 311 312 309 307 309 310 310 310 310 311 310 310 312 312 313 312 309 310 310 311 313 313 313 313 315 316 315 313 313 314 315 315 317 317 314 315 313 314 319 318 316 317 319 324 328 325 320 320 318 321 323 318 318 320 324 327 325 325 325 320 323 320 318 327 324 316 318 316 315 315 316 320 319 316 314 312 314 315 315 316 316 317
319 317 316 317 315 313 314 314 309 308 308 309 310 309 310 311 309 311 315 311 311 312 309 309 310 311 313 313 313 313 314 316 316 315 313 314 315 314 317 317 317 317 312 314 323 317 314 320 321 326 330 324 321 321 319 322 324 319 318 320 322 325 328 334 333 326 324 318 321 329 319 314 324 322 317 316 315 316 319 321 316 310 314 317 316 317 316 317
316 317 316 315 315 315 315 313 310 309 309 308 309 309 310 311 309 312 314 310 309 310 309 309 310 312 313 312 312 313 314 314 316 316 314 314 315 314 316 315 314 318 312 314 326 319 313 316 317 323 326 320 320 319 319 326 323 316 317 320 323 326 329 332 331 326 321 317 325 329 316 313 322 325 320 315 314 318 320 321 314 310 316 318 317 317 317 317
313 315 317 316 316 316 316 314 311 311 310 309 307 308 310 311 311 310 308 309 312 311 308 309 311 312 312 312 311 312 313 314 314 315 314 315 315 313 315 313 313 321 321 318 324 320 312 312 313 316 317 316 317 315 315 320 316 313 322 327 325 328 330 333 333 324 315 319 328 326 318 314 315 325 326 316 314 317 317 319 315 312 317 318 318 318 316 317
312 312 314 317 317 316 316 316 314 313 311 309 308 308 310 312 314 310 306 311 316 312 307 309 311 312 312 312 312 312 313 314 313 314 315 315 315 314 314 314 315 322 324 321 322 319 314 313 313 313 312 312 316 316 314 315 314 317 330 330 321 325 329 331 330 321 314 323 327 321 317 315 314 323 325 318 317 315 313 317 317 315 317 318 317 318 316 317
311 311 311 315 318 317 317 317 317 315 312 309 308 308 311 312 311 310 310 312 315 313 311 310 311 312 312 312 314 314 316 316 313 313 317 317 317 316 316 319 321 320 319 320 322 318 317 318 314 312 313 313 320 323 318 320 323 321 325 324 317 319 322 322 326 322 320 321 319 318 318 315 315 318 317 318 319 314 310 313 315 314 316 318 317 317 316 316
311 312 310 313 318 318 317 317 318 316 311 308 308 310 315 313 309 311 314 313 312 313 312 312 312 312 311 312 314 314 315 316 314 313 315 317 317 316 317 319 320 321 321 322 321 317 319 322 316 314 315 313 317 322 319 322 324 319 319 320 319 320 318 320 323 319 319 320 316 315 317 317 320 317 315 317 315 312 311 311 314 315 316 318 316 315 316 314
311 312 310 311 316 318 317 318 319 317 312 309 310 312 315 312 310 312 313 312 312 312 312 313 312 311 311 312 313 314 314 314 314 314 315 316 317 317 317 314 314 323 326 320 319 319 319 321 320 317 316 315 316 318 321 323 320 318 319 316 318 324 323 321 322 319 320 321 317 313 316 323 324 315 313 313 311 312 313 312 314 314 316 317 315 315 315 314
310 311 311 311 315 317 317 318 319 318 313 310 311 312 311 310 312 314 312 313 316 315 313 312 312 311 312 312 312 312 314 315 314 314 315 316 316 317 317 314 314 321 323 317 317 318 316 319 321 315 313 316 317 314 317 321 319 317 316 314 314 321 323 318 317 320 320 319 317 315 319 326 321 314 313 310 310 311 310 311 312 311 314 316 314 315 314 315
309 311 311 311 313 315 316 316 318 318 314 312 312 311 310 313 316 316 314 315 317 314 311 311 313 313 311 312 313 311 312 316 315 314 315 315 315 316 316 315 313 314 316 317 319 317 316 318 318 314 312 314 315 313 311 315 318 316 315 319 318 316 322 320 314 314 315 313 317 316 320 323 316 315 317 313 312 313 310 310 310 310 313 315 314 315 314 315
308 309 310 311 312 312 312 312 314 316 315 313 312 311 312 314 315 317 318 315 313 312 312 312 313 313 312 313 314 312 312 316 315 314 315 314 314 315 315 315 313 311 313 315 318 318 320 321 316 314 316 313 311 312 311 310 315 319 319 321 316 312 319 323 317 319 318 315 318 316 316 320 317 317 321 315 313 315 312 310 309 310 313 313 314 314 314 316
307 308 309 310 312 311 311 311 312 313 314 313 313 312 314 314 311 313 315 312 311 313 315 315 314 313 313 314 314 312 313 316 314 314 315 314 314 315 314 315 313 311 311 310 313 316 318 318 314 312 316 314 311 314 316 312 311 317 318 316 316 318 321 320 316 319 319 315 320 320 314 314 315 317 319 314 314 317 314 312 312 312 313 313 314 315 315 315
306 307 307 309 311 312 312 312 312 313 314 314 314 313 315 315 312 311 312 312 313 315 314 317 317 313 313 315 314 313 313 314 314 315 315 313 314 313 312 314 314 311 310 310 312 314 314 314 314 312 313 314 314 315 319 319 313 313 314 312 317 323 323 320 317 317 318 316 319 319 315 316 317 317 316 313 316 316 313 316 316 312 312 314 314 314 315 315
303 305 306 307 310 312 313 313 313 312 312 312 313 313 313 315 313 311 311 312 313 315 316 318 318 315 314 315 314 313 313 315 314 315 315 313 313 313 311 312 314 312 310 308 311 314 313 311 313 313 312 313 317 317 317 319 316 315 317 316 317 318 317 319 318 316 318 320 320 317 314 320 321 317 315 316 317 314 312 317 317 312 312 314 313 314 315 314
301 303 305 307 308 311 312 313 313 311 310 310 311 312 312 313 314 312 311 311 312 314 316 318 317 317 317 316 314 314 314 316 314 314 315 313 312 314 313 311 313 313 310 309 312 315 313 312 316 317 315 316 321 319 314 316 317 316 317 317 317 317 317 319 317 315 316 317 320 318 313 317 319 314 314 316 315 312 310 312 314 312 312 313 313 314 314 314
300 302 305 306 307 310 311 312 312 311 310 310 310 311 312 312 313 313 312 312 312 313 314 316 317 318 319 317 316 316 315 316 315 314 316 315 314 316 314 311 312 311 311 312 313 313 311 315 321 321 318 319 319 314 308 311 315 315 316 317 317 317 318 319 318 319 318 314 317 318 314 315 314 312 313 314 311 310 310 310 312 311 312 313 313 314 314 315
300 303 307 306 306 309 311 311 312 311 310 310 311 311 311 312 313 314 313 313 314 314 314 315 316 316 317 317 317 316 315 315 315 314 317 317 316 315 312 311 311 310 311 313 313 310 311 315 318 318 320 321 320 314 310 312 314 314 316 318 317 318 321 323 323 322 321 318 317 317 315 315 311 308 308 308 308 309 310 311 311 312 313 314 314 314 314 315
300 302 306 306 307 309 311 311 311 311 311 311 311 311 311 312 313 313 313 314 314 315 315 316 315 313 316 318 318 317 315 315 315 315 318 318 314 312 312 312 312 311 311 314 314 310 312 317 317 316 318 319 320 319 316 316 316 316 321 320 318 320 321 319 319 316 316 322 321 316 315 315 312 309 307 308 311 310 309 311 312 313 314 314 314 315 314 315
300 301 302 304 307 309 310 310 310 311 311 312 312 313 312 312 313 313 313 314 314 314 315 316 314 314 317 318 318 318 316 316 318 317 317 317 315 313 312 311 312 312 311 313 312 311 316 320 317 315 316 315 317 319 318 319 318 318 322 321 316 318 318 317 318 316 316 322 320 316 314 313 312 314 314 315 318 315 311 312 313 313 313 314 314 314 314 314
300 301 301 302 304 306 308 308 308 310 311 312 312 313 312 313 313 313 314 314 313 313 314 315 314 315 317 316 318 319 316 317 319 317 317 318 318 315 312 312 312 311 311 312 311 313 320 321 315 314 315 313 316 321 319 318 319 317 319 319 316 316 316 317 320 318 316 318 317 315 315 314 313 315 315 316 318 317 313 312 313 313 313 314 314 314 314 314
301 302 301 302 303 304 305 306 307 308 310 311 311 311 312 313 313 314 314 314 314 313 313 314 314 315 316 316 317 319 318 317 317 316 317 319 319 316 312 312 312 311 311 311 311 316 321 319 315 316 316 316 319 322 317 315 317 318 318 318 316 316 316 316 317 317 315 316 316 315 314 314 313 313 314 315 316 316 313 310 312 313 313 314 314 313 313 313
301 301 300 301 303 303 303 305 306 307 308 309 310 311 312 312 313 314 314 313 313 314 314 314 315 315 316 316 316 317 317 317 317 317 317 318 318 317 315 314 313 311 312 311 312 319 323 319 316 316 316 318 319 319 317 316 318 320 319 318 317 316 316 315 315 315 316 315 315 315 315 315 313 312 313 314 313 313 312 311 312 313 313 313 313 313 313 314
299 300 299 300 302 302 302 304 305 307 308 308 309 310 311 312 312 313 313 313 313 314 314 315 315 314 315 315 316 316 316 317 317 317 317 317 316 317 318 318 314 310 312 314 314 315 320 321 318 316 316 318 318 317 317 317 317 318 319 320 319 319 318 315 314 314 314 316 317 316 315 315 313 312 312 312 312 312 312 312 313 312 311 312 312 313 313 313
298 299 300 300 301 300 301 303 305 306 307 307 308 309 309 311 311 311 312 313 314 314 313 314 315 314 314 314 314 315 315 316 317 316 317 317 314 314 318 318 315 311 311 315 316 313 315 320 320 317 317 318 318 317 316 316 316 316 317 319 319 319 317 315 313 313 314 316 316 316 315 314 313 312 312 312 312 312 312 312 312 311 311 312 312 312 312 312
298 299 299 301 302 301 301 302 303 305 306 307 307 308 308 309 310 310 311 311 312 314 313 313 314 313 313 313 313 314 314 314 315 315 315 315 313 313 315 314 313 315 315 315 316 316 316 318 318 318 318 318 317 317 316 315 315 315 317 317 316 316 316 314 314 315 316 316 316 315 315 315 313 312 313 312 311 311 312 311 311 311 311 311 311 311 311 311
298 298 298 300 301 301 301 302 303 304 305 305 306 307 307 307 307 308 311 310 310 312 313 312 312 313 313 313 313 314 313 312 313 313 312 314 312 312 313 311 310 315 317 315 315 316 317 318 318 317 317 316 316 317 316 315 316 316 316 316 315 314 315 314 314 315 314 314 315 315 314 315 313 312 314 313 311 310 310 310 311 311 310 310 309 309 309 310
Wind_Speed
16 18 20 22 24 25 24 23 23 23 22 21 20 20 19 17 16 15 13 11 10 10 10 11 13 13 12 10 9 9 9 9 9 11 12 14 13 11 11 9 5 7 8 7 8 8 8 7 8 10 9 7 4 4 6 4 4 2 2 3 1 2 1 3 6 5 4 5 8 12 13 9 5 7 11 9 10 12 8 7 9 9 10 8 7 10 15 21
16 18 20 22 24 26 25 24 23 22 21 21 20 19 17 16 14 13 12 11 10 10 11 12 13 13 12 9 8 9 9 9 9 11 12 13 12 11 10 8 6 8 9 9 10 10 10 9 9 11 9 6 3 4 6 5 4 2 3 3 3 5 2 2 4 6 3 6 13 13 13 10 8 11 13 7 6 11 8 5 7 9 11 9 10 12 15 21
15 17 19 21 23 25 26 25 23 21 21 20 19 18 16 15 13 12 12 11 11 11 12 13 13 14 12 9 8 8 9 9 9 11 13 12 12 11 9 8 9 10 10 11 12 10 9 8 10 12 9 5 3 5 5 4 4 2 4 3 4 6 3 1 3 4 5 10 15 12 12 9 8 12 11 7 7 7 7 7 8 10 13 12 14 14 15 20
16 17 19 21 22 24 26 25 23 21 20 20 19 18 16 15 13 13 12 12 12 12 12 13 13 14 11 9 8 8 9 7 7 12 13 10 10 10 9 9 11 11 11 11 11 9 7 7 11 12 8 4 2 4 4 4 4 1 4 3 5 5 2 2 4 1 5 13 15 13 11 6 7 12 10 9 8 3 10 14 11 11 15 16 17 17 16 18
16 17 19 20 21 23 26 26 25 22 21 20 19 18 17 16 14 13 13 13 12 12 13 13 13 13 11 10 8 9 9 4 6 12 12 10 9 10 10 11 13 11 11 11 10 9 6 6 11 11 6 3 2 2 4 5 5 3 1 2 4 6 2 1 3 3 7 11 12 12 10 6 8 10 12 12 8 5 12 16 13 12 14 15 17 19 19 19
17 18 19 19 20 22 24 26 25 23 21 19 18 18 17 15 15 14 14 13 13 13 13 13 13 13 12 10 8 10 9 3 6 13 12 10 10 10 11 13 13 11 10 10 9 9 6 6 10 10 5 2 4 4 3 7 6 3 1 1 3 5 4 4 4 4 8 11 11 11 9 9 9 7 11 14 11 8 8 10 11 12 13 14 16 19 20 20
17 18 19 19 19 20 21 23 24 23 21 20 19 18 17 16 15 15 14 14 14 13 13 13 13 13 12 10 8 10 10 3 5 12 12 11 11 11 12 13 13 11 10 9 10 11 9 8 9 9 4 2 4 5 4 7 5 4 2 2 2 3 5 6 5 5 8 11 11 10 9 10 10 5 7 13 14 9 6 5 7 10 14 16 18 19 20 19
17 18 19 19 19 19 21 22 22 22 21 21 19 18 17 17 16 16 15 14 14 14 14 14 13 14 12 10 9 8 10 5 3 10 14 12 12 13 12 12 12 10 11 10 10 12 10 9 8 7 3 1 5 5 5 6 2 3 3 4 3 4 5 4 5 6 6 9 8 8 8 8 8 4 5 12 15 12 10 8 6 7 12 18 20 20 20 20
16 18 18 20 20 20 21 22 23 22 22 21 20 19 17 17 17 16 15 15 14 14 14 14 14 14 13 10 9 6 7 6 4 9 14 13 13 14 13 12 11 10 11 11 10 12 10 8 7 6 3 3 7 6 6 5 1 3 7 8 6 4 5 5 5 6 5 6 5 5 3 3 5 3 7 15 15 14 14 12 10 9 10 15 18 20 20 20
15 17 19 20 21 21 21 22 23 23 22 21 20 18 17 17 16 16 15 15 15 15 15 15 14 14 13 11 9 6 7 8 6 9 13 13 14 14 13 12 12 11 12 12 11 12 10 7 6 7 3 3 7 5 3 4 3 7 11 9 7 5 5 4 4 5 4 4 4 5 2 1 2 1 6 12 10 13 17 16 15 13 12 13 16 18 19 20
15 17 19 20 21 22 22 22 22 23 22 21 20 19 17 16 16 15 15 15 15 15 15 15 15 14 13 11 10 6 5 8 9 9 12 13 13 13 13 12 12 12 12 13 12 11 10 7 6 6 4 4 6 4 3 6 8 13 14 8 5 3 2 2 4 6 4 2 3 4 0 3 1 2 11 13 6 10 17 18 17 16 15 15 16 17 19 20
15 18 19 21 22 22 22 21 22 22 22 21 20 19 18 16 16 15 15 15 15 15 16 15 15 14 13 11 11 6 5 7 9 10 12 13 13 13 13 12 12 12 12 12 12 11 9 6 5 5 5 9 6 3 4 7 11 12 10 5 5 6 2 2 3 5 4 2 3 3 1 4 2 8 15 10 5 8 13 19 20 19 18 16 17 18 20 21
15 18 20 21 22 22 21 21 21 22 21 21 20 18 17 16 15 15 15 15 15 15 15 15 15 15 13 9 9 8 5 5 9 11 13 14 14 14 13 13 13 12 10 9 11 11 9 7 5 6 9 9 5 5 7 7 10 7 4 4 3 7 4 3 2 3 3 2 4 4 1 6 6 15 18 9 8 10 13 19 21 21 20 19 18 19 21 21
15 17 20 22 22 22 21 20 20 21 21 20 19 18 17 15 15 15 15 14 15 15 15 14 15 14 13 6 6 10 7 5 10 12 14 15 14 14 13 12 12 12 9 7 10 10 10 7 6 7 8 7 8 10 7 4 5 3 1 3 3 2 3 5 1 5 4 2 4 4 1 6 8 13 12 11 15 14 16 19 20 21 21 20 20 21 22 22
16 18 21 22 22 22 20 19 19 20 19 19 18 17 16 15 15 15 15 15 15 15 15 15 15 13 11 5 4 10 9 9 12 14 15 15 14 14 13 12 12 11 9 8 10 10 10 8 7 7 8 9 12 9 4 4 3 3 2 1 3 2 4 7 1 7 5 2 3 4 1 6 9 9 6 4 9 12 16 18 18 20 20 21 21 21 22 22
17 19 22 22 22 22 20 19 19 19 18 17 17 16 15 14 14 15 15 15 15 15 15 14 15 12 7 5 6 9 11 13 14 15 16 15 14 14 13 12 12 11 9 9 10 11 11 9 7 8 8 8 8 6 4 4 4 4 3 3 2 2 3 5 1 4 3 2 1 1 3 3 4 5 3 6 1 8 14 17 17 19 20 21 21 22 22 22
17 19 21 22 22 21 20 19 18 18 17 17 16 15 14 14 14 15 14 15 14 14 14 14 15 11 4 4 7 11 14 15 15 17 17 15 14 13 13 12 12 11 10 11 11 11 11 8 8 6 4 4 4 5 5 2 3 3 2 1 3 3 2 2 2 2 1 2 2 0 3 6 6 8 8 5 2 6 12 15 16 17 19 20 21 22 23 23
17 19 21 23 22 21 20 18 19 18 17 17 15 14 14 14 14 14 14 15 15 14 12 12 14 8 4 8 10 12 16 16 17 18 17 16 14 13 13 12 12 12 12 11 8 8 7 5 6 3 3 4 2 5 4 4 5 4 2 2 2 2 2 3 3 2 2 1 2 1 3 9 10 13 18 17 12 12 15 18 19 20 22 23 24 26 26 27
18 19 21 22 22 22 20 19 19 18 18 17 15 16 15 14 14 13 15 17 15 10 5 12 17 5 2 13 14 14 17 17 18 19 17 16 15 14 13 12 12 14 12 7 4 4 5 4 5 3 1 2 4 5 6 7 8 8 6 5 4 3 3 4 3 3 1 1 4 5 5 8 10 11 16 23 20 15 18 21 25 27 28 29 29 30 30 30
19 19 20 21 22 22 20 19 19 18 18 17 18 19 16 15 11 7 14 18 14 5 0 15 20 2 2 16 19 16 17 17 18 19 18 16 16 15 13 12 11 9 7 5 3 2 4 4 3 4 7 7 7 7 6 5 6 7 6 5 3 3 2 3 3 4 1 3 5 5 5 8 10 10 15 23 20 14 18 22 26 29 30 32 32 32 32 32
18 19 20 20 20 20 20 20 18 18 19 19 22 19 14 16 9 5 14 13 10 4 2 18 21 3 4 16 20 18 17 16 18 20 18 17 17 14 11 10 7 4 2 4 4 2 4 4 5 8 9 8 6 6 7 6 5 5 6 5 2 2 2 2 3 4 1 2 4 3 4 9 10 10 15 20 14 14 21 22 26 31 31 33 33 33 34 32
15 17 18 19 19 19 19 20 19 19 20 21 24 16 13 19 11 11 16 8 9 6 3 18 19 5 6 13 17 18 16 12 13 19 19 18 17 11 8 7 5 3 1 3 5 3 3 2 8 8 6 5 4 5 7 6 5 5 4 5 2 1 2 3 4 5 3 1 4 5 6 10 11 9 15 19 15 18 24 23 26 29 30 32 34 34 34 33
13 14 16 16 18 17 17 18 19 21 22 22 22 14 14 19 11 14 16 6 8 8 5 15 16 9 10 13 17 17 14 9 10 19 20 18 17 11 10 7 4 4 3 3 6 4 2 5 8 6 6 7 6 4 7 6 4 4 4 4 2 2 1 1 4 4 3 2 2 4 6 10 9 6 11 17 17 18 21 20 23 25 27 30 32 33 34 34
12 13 13 14 16 16 16 17 18 21 23 22 19 13 15 18 13 16 13 4 4 7 8 13 13 13 13 13 17 16 12 10 10 19 22 20 17 11 10 8 5 4 3 5 8 7 5 6 2 5 5 6 6 4 6 6 1 1 3 5 3 3 3 3 2 2 3 4 3 4 6 7 5 5 7 8 7 11 13 12 15 18 20 23 25 27 28 28
11 13 13 14 14 15 15 15 17 21 23 20 15 13 15 16 14 16 10 4 2 4 8 11 10 12 13 12 16 14 11 9 10 19 23 21 18 10 7 7 6 4 4 6 7 5 5 4 2 7 5 5 6 2 3 7 2 3 2 5 6 6 6 2 2 4 4 4 4 5 4 6 5 5 7 6 5 7 8 8 11 12 12 16 20 21 22 22
10 11 14 14 12 15 16 13 16 20 22 18 13 13 15 14 15 16 7 4 1 2 6 10 8 11 13 13 17 15 8 5 9 20 23 20 16 11 6 5 3 3 6 6 4 2 3 2 3 6 6 6 6 2 3 5 5 1 4 5 6 7 7 4 2 4 1 3 3 4 4 5 7 5 8 6 7 9 9 8 12 17 18 19 21 21 20 19
12 11 13 13 12 14 14 12 17 20 20 18 14 14 15 13 15 14 6 5 3 4 7 8 8 11 13 15 20 14 4 6 10 16 22 19 15 10 7 4 2 2 5 5 2 1 1 3 6 6 6 6 5 2 4 6 7 3 4 6 7 7 7 5 5 3 2 3 4 4 4 2 6 6 6 5 6 9 10 9 14 20 21 19 17 17 17 17
13 14 12 12 13 13 12 13 18 19 20 20 15 14 13 14 15 11 5 2 3 5 6 6 8 11 14 19 21 11 8 13 9 10 20 19 14 8 4 6 6 4 3 6 4 3 1 3 3 6 6 3 4 4 4 7 6 4 4 7 6 6 6 5 6 3 1 2 4 5 2 2 6 7 5 5 5 8 10 9 12 16 17 16 11 6 6 8
10 14 14 12 12 11 12 15 19 19 19 21 18 13 12 15 13 7 4 1 3 4 4 8 10 11 14 17 13 7 10 9 4 10 19 16 12 6 3 6 9 7 5 5 5 3 1 2 4 7 5 4 4 3 4 5 3 3 5 7 5 6 6 5 5 3 3 2 5 6 2 2 5 7 4 3 3 6 8 8 9 11 13 13 12 11 8 6
10 12 15 14 11 12 14 16 18 19 17 19 20 14 12 13 8 5 2 3 3 2 2 8 8 10 14 11 3 3 6 2 5 15 13 9 10 7 6 7 8 7 5 6 4 1 2 0 1 3 3 5 5 2 1 3 5 8 7 7 6 6 5 4 3 4 3 3 6 7 3 2 4 7 4 3 4 5 3 5 7 10 13 13 15 15 11 8
13 12 12 14 14 14 14 15 17 18 17 18 19 17 13 7 3 4 5 3 3 2 2 4 4 8 14 11 3 2 3 3 6 13 8 4 6 5 6 6 4 6 4 4 3 4 4 3 1 1 1 5 7 5 4 4 5 7 5 5 4 4 5 4 4 4 1 5 6 5 2 3 4 6 4 5 6 4 3 3 7 9 10 10 12 11 8 7
14 15 11 12 16 16 15 15 16 16 17 19 21 19 11 4 1 4 3 1 2 3 4 4 3 6 10 7 5 4 3 3 4 7 6 4 4 4 4 5 4 4 1 2 1 3 2 1 3 3 1 4 6 5 4 5 5 6 5 6 4 2 3 3 3 1 3 6 4 3 2 3 6 8 8 11 10 5 6 5 6 7 5 8 9 8 8 9
10 14 14 12 13 16 16 15 15 16 17 22 23 15 6 3 6 6 2 1 1 2 4 4 3 6 9 7 5 4 3 2 4 4 3 3 4 5 3 2 6 5 3 4 3 2 1 5 4 1 1 5 6 6 3 0 1 4 5 5 4 3 2 3 3 2 4 5 3 3 2 3 4 5 8 13 11 5 5 6 6 4 2 5 7 8 11 12
9 9 15 15 13 15 17 15 14 13 17 23 20 9 4 5 5 3 3 3 1 2 2 4 7 7 7 5 5 5 3 1 4 5 3 4 5 6 4 3 3 5 4 4 3 5 4 4 4 3 2 6 6 5 7 6 4 4 4 6 5 5 5 4 4 3 4 3 3 3 2 3 2 1 5 10 12 11 6 6 6 3 1 1 4 9 12 12
11 9 14 17 15 13 14 16 14 11 17 21 13 4 6 8 3 3 5 4 1 2 3 4 8 8 4 1 2 5 3 1 4 5 4 5 5 6 6 5 5 4 6 5 2 3 3 4 6 2 1 9 8 4 5 7 2 2 3 5 3 5 5 2 3 5 3 1 3 2 3 4 3 5 9 8 10 11 6 4 6 5 4 3 5 10 13 11
13 12 13 15 17 15 12 14 12 11 17 16 7 5 7 4 3 4 4 3 4 5 6 5 5 5 4 2 2 6 1 2 4 4 3 3 2 5 6 5 7 7 6 6 3 2 3 4 5 2 1 4 5 3 4 4 3 2 2 3 5 4 7 4 2 1 3 2 4 2 4 5 3 7 9 5 5 8 3 3 5 1 3 3 6 12 13 11
14 14 13 12 15 16 15 13 10 11 15 11 6 7 3 0 3 3 1 1 6 9 9 4 2 4 5 2 4 6 2 2 4 3 3 3 2 5 6 4 7 10 8 6 3 3 5 2 4 1 2 3 1 3 2 2 4 5 3 6 3 2 4 4 2 3 3 3 5 2 5 5 2 4 7 6 3 7 4 5 6 7 6 5 9 13 13 11
13 14 13 11 10 12 15 13 10 10 8 5 5 5 1 0 3 1 2 1 6 7 5 5 3 3 5 4 4 6 4 3 5 4 4 4 4 6 8 4 6 13 13 7 2 3 5 2 5 1 3 3 3 3 1 3 2 5 4 4 4 2 1 2 2 2 1 2 5 4 4 5 4 5 5 3 4 6 3 5 5 6 8 8 11 14 13 12
12 11 10 10 9 9 12 13 13 10 4 2 6 4 1 2 3 2 1 3 3 4 4 5 3 2 5 6 5 6 5 5 7 5 3 4 4 5 10 7 5 13 17 11 4 2 4 3 4 1 1 1 3 2 4 1 2 3 3 3 3 2 4 3 3 3 3 3 3 4 4 4 6 6 7 7 9 6 2 7 5 3 7 9 13 14 13 14
11 8 5 10 11 9 12 14 14 10 3 2 4 2 1 1 3 4 3 1 3 3 2 3 3 4 5 4 4 5 5 5 8 6 3 5 5 4 8 8 4 8 14 11 6 2 3 3 4 2 2 1 2 3 6 7 5 3 3 4 2 1 2 2 1 3 4 4 2 3 5 6 5 4 8 9 8 5 6 8 5 2 7 10 13 14 14 15
11 6 4 11 13 11 13 12 9 7 2 3 2 2 2 2 2 1 0 2 1 3 2 3 3 4 4 4 3 4 4 4 7 5 2 5 5 2 7 11 8 7 8 6 5 3 2 3 4 2 1 3 5 5 6 9 7 6 6 7 6 5 4 3 3 1 2 3 4 3 5 8 5 4 6 6 5 6 8 9 5 4 8 10 14 15 14 14
10 3 4 12 14 14 13 7 3 5 3 3 2 3 2 1 2 1 3 3 2 1 2 2 2 2 3 3 3 5 6 4 5 6 3 5 6 3 5 11 13 14 11 5 5 5 3 4 4 3 4 6 6 5 3 5 3 3 3 5 5 4 5 6 5 3 1 2 2 3 4 7 4 6 6 7 9 9 9 9 7 5 7 12 15 15 15 14
7 4 7 13 14 15 13 3 2 5 3 3 3 4 5 3 1 1 2 2 1 1 1 0 0 1 1 1 2 5 6 4 5 6 3 3 5 4 3 5 10 13 10 4 4 4 4 4 4 1 3 4 5 4 2 1 1 2 2 2 4 3 3 5 5 4 3 4 2 3 4 6 1 2 6 8 9 9 8 6 7 10 15 19 20 21 21 20
6 5 7 11 14 16 11 3 4 6 3 4 4 5 7 6 4 3 3 3 3 2 2 1 1 1 1 2 3 4 4 3 4 5 3 2 4 3 0 3 9 10 7 5 7 9 6 2 4 3 1 3 4 3 2 3 0 3 3 3 5 5 6 4 2 3 2 6 7 5 7 7 3 2 4 5 3 3 5 8 13 19 21 20 19 18 18 18
4 4 3 8 14 15 8 3 3 5 4 6 6 6 7 5 7 9 7 4 6 5 3 2 2 3 2 2 3 1 2 2 3 4 3 2 2 0 3 3 8 9 6 8 13 14 8 3 5 6 5 6 5 5 5 2 1 2 2 5 6 7 8 5 2 4 5 7 7 6 9 8 2 3 5 5 4 4 8 13 17 19 15 12 10 12 15 19
3 2 1 4 9 11 6 3 3 3 4 6 4 5 8 5 4 9 9 5 7 8 5 2 3 4 1 1 2 1 1 3 2 3 3 3 3 1 3 3 5 9 7 7 13 12 4 2 6 8 9 9 8 7 6 5 6 5 5 8 8 8 10 7 3 5 8 5 4 7 10 12 10 4 4 3 4 4 7 9 11 11 6 7 13 18 21 22
1 1 3 4 3 6 4 3 4 3 4 7 4 3 9 8 2 4 7 6 7 9 4 1 3 4 3 4 3 2 2 2 2 2 3 4 3 2 2 4 4 7 6 5 8 8 4 2 6 6 7 7 6 6 5 6 8 10 9 9 8 8 10 10 8 11 8 4 9 12 8 11 18 11 6 3 5 4 4 2 4 6 8 14 21 22 20 20
2 1 3 4 2 3 4 5 7 5 3 6 4 3 7 9 5 4 6 4 4 7 4 1 4 7 7 7 4 2 3 1 0 3 3 2 1 2 2 3 2 1 2 3 3 4 4 3 5 4 4 4 5 6 5 5 5 5 6 7 8 8 10 13 16 15 10 8 11 9 6 9 18 12 4 6 7 8 7 7 10 12 13 17 18 19 21 22
5 3 4 4 1 2 3 6 8 6 3 4 3 3 8 11 11 7 5 3 2 6 7 4 5 8 8 8 6 4 5 4 4 4 4 2 2 2 1 1 1 1 1 3 2 2 4 2 2 4 3 3 5 5 5 6 4 3 5 7 8 9 12 14 14 11 7 7 10 7 4 11 16 9 2 6 11 15 16 15 14 11 8 10 13 17 21 20
7 5 3 1 1 2 1 6 9 6 4 4 3 3 6 10 13 9 5 6 6 5 7 9 8 7 8 8 8 7 7 7 5 4 5 4 0 1 2 2 1 3 4 1 1 1 2 2 1 4 1 4 6 6 5 6 5 4 5 6 8 11 11 10 7 4 3 6 10 7 8 14 12 7 11 12 9 11 18 17 11 7 5 7 10 12 14 15
11 8 5 1 1 1 2 4 6 5 4 5 5 5 5 8 12 9 4 8 11 7 9 14 10 6 6 7 8 10 11 11 11 12 12 10 7 8 7 4 5 4 3 1 1 2 1 1 2 4 1 5 5 5 5 6 5 4 7 10 13 12 9 7 5 6 7 8 9 6 7 13 9 3 10 11 5 7 14 15 9 7 4 5 6 6 8 10
16 11 8 3 1 1 2 3 4 5 6 8 10 7 5 5 7 9 5 7 13 15 16 16 10 6 5 7 12 17 16 13 14 16 18 17 14 14 14 12 12 9 4 3 1 1 3 2 1 3 2 6 4 2 4 5 4 6 11 14 15 12 10 8 6 8 11 10 7 6 8 11 7 2 6 10 4 3 6 8 7 4 5 7 10 11 11 12
Wind_Direction
180 186 188 183 176 172 172 174 178 179 176 174 176 178 180 178 172 170 172 176 182 187 193 193 189 185 181 177 176 173 174 177 177 177 178 177 175 175 184 189 184 179 175 178 179 175 178 176 179 183 182 181 188 200 187 186 200 202 106 94 155 195 214 181 178 187 159 160 191 189 180 162 152 158 141 133 150 146 144 162 158 162 152 148 156 146 157 163
186 188 189 187 180 175 173 176 181 182 179 177 178 180 182 180 176 173 176 182 188 192 195 193 187 184 178 171 173 173 174 176 176 177 176 176 177 175 179 187 185 173 170 173 166 160 160 160 171 177 179 179 188 190 181 189 180 140 99 98 211 212 201 196 177 180 164 167 179 182 182 177 177 169 153 143 155 148 138 142 154 167 163 156 158 156 161 167
192 190 190 190 185 178 175 177 182 185 182 181 181 181 183 182 181 180 181 188 192 193 193 191 187 183 176 168 170 171 172 176 178 178 174 173 179 179 175 178 174 168 172 170 160 155 154 160 170 173 178 185 192 185 171 174 182 155 93 105 235 217 192 32 102 173 218 182 168 173 179 183 192 178 171 172 167 165 171 169 168 180 179 170 165 167 168 170
195 192 192 192 189 184 178 177 183 188 186 185 185 184 185 184 185 186 189 191 192 192 189 188 186 181 175 166 166 171 169 172 182 178 174 173 180 184 179 173 170 169 175 170 162 160 154 163 173 171 178 197 205 196 194 177 180 143 111 164 217 192 154 47 65 92 204 176 167 168 168 190 202 187 190 169 149 225 217 199 205 207 193 179 173 176 176 177
196 195 194 192 192 190 183 179 183 189 190 189 188 188 187 185 187 190 193 192 189 189 186 185 186 182 173 166 166 168 157 149 185 178 176 180 179 181 178 174 174 173 177 176 174 172 165 169 175 174 178 204 180 181 218 182 148 89 88 215 169 157 146 117 88 99 168 170 163 159 159 187 186 189 202 178 162 230 225 217 227 226 208 194 185 183 183 185
197 197 195 194 194 194 189 183 183 187 190 190 190 190 188 186 187 191 194 191 187 185 185 182 183 182 174 169 168 168 163 136 174 176 176 178 173 174 176 178 178 176 180 183 186 188 185 167 171 180 179 184 181 180 192 179 157 104 274 281 136 165 157 147 135 131 175 171 154 158 169 173 167 195 212 201 208 225 222 221 226 231 225 211 198 191 189 191
197 197 197 196 194 195 193 187 183 184 187 189 191 190 188 186 186 190 192 190 187 183 182 181 180 181 176 172 169 177 188 165 151 175 174 170 171 175 177 180 180 179 183 183 188 194 192 171 167 176 158 107 186 197 168 164 155 120 186 255 109 136 137 141 145 131 167 170 157 159 168 171 173 195 215 218 226 222 206 181 189 220 222 215 207 202 201 200
197 198 198 196 194 192 192 190 185 183 186 188 189 189 187 186 187 190 190 188 186 181 179 179 178 179 177 177 175 181 201 196 140 172 173 169 173 176 178 181 181 181 183 181 184 189 187 173 169 171 153 168 191 190 154 135 109 108 155 198 128 110 131 133 156 145 149 159 153 158 165 177 188 205 238 235 230 218 214 201 183 200 211 215 215 214 210 207
198 199 199 197 194 191 192 192 186 184 187 187 187 188 188 187 188 189 190 188 184 180 178 177 177 179 178 181 181 178 195 191 149 162 171 174 176 178 180 181 183 184 180 179 181 183 182 169 177 188 189 206 178 166 155 141 252 168 146 164 150 125 137 131 161 161 154 163 159 175 181 174 196 249 265 248 238 224 220 219 218 216 211 211 215 219 216 212
200 199 200 197 194 191 192 193 189 185 186 187 187 187 188 189 189 188 189 187 183 180 177 176 177 179 179 182 183 180 187 183 164 163 171 177 178 179 179 180 184 183 178 181 181 178 174 161 168 181 166 161 154 138 150 148 175 157 133 131 126 128 148 139 159 157 156 178 183 196 222 262 191 144 262 255 241 222 220 220 225 227 223 215 212 216 218 217
202 199 199 197 194 192 192 194 192 187 186 187 185 186 188 189 189 188 188 186 183 180 177 177 176 177 179 183 187 179 174 176 170 171 176 178 178 176 176 180 181 180 182 185 183 177 172 158 150 167 162 144 141 108 108 135 142 142 128 100 57 75 157 176 156 157 156 159 189 180 175 298 94 147 249 255 243 222 220 218 223 225 225 222 216 214 216 219
204 197 197 196 193 193 192 194 194 189 187 186 185 186 186 188 189 187 186 184 182 180 179 177 175 177 178 187 198 179 141 161 169 175 179 176 173 172 173 177 177 178 186 191 189 182 174 167 159 170 158 145 140 98 114 138 137 134 122 97 358 12 16 234 166 171 178 154 185 142 20 290 242 222 242 248 239 239 224 219 222 223 226 225 223 221 220 223
205 195 194 194 193 192 192 193 194 192 189 186 186 185 185 187 187 185 185 182 181 180 180 178 175 177 176 187 206 190 162 164 173 177 177 173 168 168 170 175 176 177 186 195 193 186 179 179 173 158 146 144 139 121 127 131 133 131 100 99 23 13 351 265 160 173 182 171 190 142 273 273 257 241 242 247 255 254 232 223 221 223 227 227 226 227 228 230
202 195 192 191 191 190 190 192 195 194 191 187 186 185 185 186 185 185 183 179 179 179 179 178 175 176 178 182 202 199 201 183 176 177 173 168 164 164 168 172 174 177 183 186 185 187 180 170 160 146 135 137 134 123 108 74 108 122 70 66 60 85 285 293 131 152 154 211 210 131 197 258 276 271 265 264 257 247 234 229 224 224 227 228 229 230 235 237
199 193 190 189 189 187 187 191 194 195 194 190 186 185 183 183 185 183 180 178 178 177 177 177 174 174 177 178 191 197 199 185 177 175 169 164 162 161 164 168 169 175 179 172 173 175 166 158 157 138 117 128 129 116 59 12 31 49 95 319 345 146 258 304 219 167 162 211 205 120 210 265 280 289 331 321 251 228 228 232 227 227 228 230 233 236 242 246
197 190 188 187 186 184 186 190 194 195 193 190 186 185 183 182 184 181 179 177 174 175 175 174 174 171 167 177 187 186 185 182 175 172 169 162 162 160 158 161 163 168 167 160 163 162 159 155 140 124 117 128 122 97 60 28 352 3 100 200 269 156 251 309 277 206 181 171 225 136 211 272 280 259 12 25 255 211 225 236 234 232 234 235 238 242 247 251
190 186 185 183 182 181 183 189 193 191 190 189 186 184 181 179 180 179 176 173 170 171 171 170 171 170 174 182 178 180 181 179 175 173 170 164 164 160 154 155 157 160 155 150 155 156 157 151 134 130 105 101 103 91 83 25 287 303 32 173 230 177 177 272 280 296 67 140 245 81 207 253 264 263 283 309 270 234 237 244 244 239 240 243 245 248 250 252
177 180 181 179 179 177 179 188 189 188 189 186 182 179 176 172 171 173 170 166 159 155 161 167 163 163 226 197 178 181 182 179 176 173 170 169 168 163 156 150 151 152 144 142 152 150 147 132 121 125 36 57 103 98 114 208 196 194 191 167 239 208 183 231 238 277 38 84 247 212 240 258 268 278 277 272 270 265 257 257 259 257 255 255 254 254 254 255
166 172 176 175 174 173 177 183 185 187 184 180 176 168 162 156 153 158 163 161 155 144 158 176 168 157 230 185 177 178 180 178 176 173 171 170 169 168 160 148 149 149 140 135 144 137 127 98 91 112 139 165 185 153 161 194 174 171 175 146 158 182 230 241 244 261 155 121 256 233 235 260 271 281 278 273 273 268 262 262 263 263 262 261 260 259 259 258
156 160 167 169 169 170 172 178 182 183 179 175 171 160 151 146 134 141 165 164 162 146 312 180 177 177 110 168 173 172 171 173 176 174 172 171 168 165 157 149 147 138 135 145 153 131 101 108 145 185 195 192 197 180 155 152 140 137 125 107 141 162 236 255 266 284 150 153 256 244 245 262 263 268 270 273 278 271 260 257 258 260 261 261 261 261 261 260
147 150 156 161 165 167 169 174 178 178 176 173 168 162 159 159 145 155 169 169 175 153 107 177 180 196 129 165 171 165 162 167 176 176 172 171 166 160 158 150 132 114 141 138 123 90 82 128 207 218 205 190 188 171 125 103 92 96 117 113 90 147 228 253 254 286 20 154 266 321 307 271 258 262 269 270 270 258 251 247 251 257 259 261 261 261 262 261
142 146 149 156 161 165 167 171 173 174 174 170 169 169 172 172 171 174 166 164 184 167 135 177 185 197 152 164 170 164 159 157 175 180 173 169 167 166 165 145 119 141 162 101 100 63 64 193 235 228 197 137 107 136 119 101 91 83 112 121 107 202 252 296 300 310 9 121 273 344 332 281 266 258 263 262 252 254 257 251 252 257 259 261 262 263 264 265
137 141 146 152 158 163 165 167 170 172 171 169 171 175 175 173 174 172 164 141 175 176 164 181 192 189 155 160 171 169 163 153 171 181 176 172 171 167 161 142 120 141 124 126 136 119 127 243 246 210 163 111 80 108 115 96 85 88 107 127 194 246 172 277 294 316 359 50 286 334 318 284 285 282 267 263 255 262 268 261 258 259 259 263 265 266 267 268
143 142 145 150 156 161 162 167 170 170 169 168 172 178 174 174 171 166 158 95 150 182 182 186 199 192 167 161 174 175 169 163 172 179 178 176 170 161 164 151 120 134 159 157 144 149 199 255 241 123 127 122 101 90 118 125 99 16 128 141 177 206 170 200 281 333 357 11 20 10 330 293 311 331 291 281 267 265 274 272 263 260 261 265 267 266 265 266
151 149 149 147 152 158 161 167 170 171 170 165 168 172 169 173 170 162 151 64 113 189 188 190 202 199 184 171 175 174 165 163 171 177 180 179 168 156 162 153 133 164 183 144 128 159 227 271 128 115 89 102 119 124 161 153 152 314 224 173 172 167 157 174 4 40 37 351 340 31 9 291 312 320 281 301 326 294 294 292 278 280 280 271 265 264 264 266
162 159 153 147 150 158 160 163 169 174 172 164 159 160 164 171 166 161 139 48 296 206 174 186 193 191 190 180 167 157 152 176 173 176 179 178 174 160 148 144 127 172 169 139 126 171 232 345 81 120 106 92 107 152 209 145 117 281 241 175 152 130 127 141 78 61 83 258 300 58 102 266 302 292 264 294 324 311 312 306 293 292 289 279 271 270 272 275
182 176 160 151 155 158 157 162 170 174 176 171 156 146 158 163 160 161 123 35 270 183 152 179 183 180 185 175 163 150 150 171 156 172 177 175 178 165 156 171 111 147 161 131 130 217 179 66 57 79 88 91 113 178 212 130 114 233 234 135 126 121 136 149 106 96 212 242 322 17 113 240 293 265 264 307 323 314 312 303 292 289 294 300 292 279 278 281
192 189 176 160 158 159 158 164 169 171 178 179 161 142 150 152 152 152 111 52 207 147 146 179 169 170 173 167 167 155 138 148 140 174 177 172 179 163 155 192 153 130 130 124 171 256 121 142 146 113 88 108 172 213 199 122 101 243 206 126 130 132 134 122 98 98 11 19 314 315 122 196 276 271 297 337 320 302 296 285 286 298 317 336 335 308 297 297
193 190 186 172 160 161 161 161 166 170 178 181 171 154 145 146 146 127 91 173 167 110 137 163 159 167 163 157 166 150 134 141 130 166 170 170 178 161 131 182 148 107 52 92 160 232 48 169 187 137 123 175 197 235 201 138 105 179 137 96 78 72 80 78 89 99 39 23 254 257 195 190 268 285 311 341 289 267 273 276 288 320 351 16 40 64 66 40
199 190 184 180 175 171 162 158 165 170 173 176 178 170 149 144 138 117 163 212 153 88 120 154 164 166 154 143 134 135 131 105 118 143 154 162 168 151 120 145 128 97 35 38 95 240 330 34 124 105 133 169 148 109 142 137 132 132 100 62 47 31 35 42 57 83 61 297 253 243 224 168 270 281 256 217 226 219 256 311 315 347 20 46 60 66 63 45
208 203 187 181 186 182 167 161 164 165 167 169 172 169 153 131 98 139 194 208 123 101 102 148 179 158 155 151 140 147 97 54 134 142 142 140 152 143 122 130 97 77 39 35 50 327 357 57 12 358 109 132 109 69 40 49 96 107 83 72 66 355 9 21 2 42 109 256 262 256 224 150 219 262 251 244 260 232 199 286 314 342 14 46 57 54 44 29
213 214 206 186 187 187 178 170 160 157 161 161 163 165 148 104 210 195 202 188 146 178 167 175 201 164 158 143 129 151 110 91 160 150 145 142 154 172 156 164 144 100 167 178 100 337 26 42 299 330 259 158 111 72 33 12 41 78 89 96 89 343 4 355 310 330 221 245 270 274 219 187 227 251 255 257 265 236 194 232 300 334 13 47 44 33 26 20
218 210 207 198 190 187 186 177 161 157 160 158 159 156 119 124 210 203 201 250 194 174 152 145 134 144 148 136 144 160 104 125 185 156 146 137 156 204 233 186 144 121 184 181 125 126 272 312 307 34 282 210 149 121 133 268 114 133 137 132 132 132 131 263 269 280 263 259 283 284 258 265 274 268 247 249 262 255 216 252 309 337 46 43 28 27 28 23
224 202 199 200 192 187 187 179 166 159 158 158 155 138 124 192 208 152 163 221 204 66 84 115 114 129 144 141 180 176 95 105 180 142 134 131 147 205 234 227 155 98 109 151 146 166 181 280 233 173 200 192 178 172 163 150 157 179 155 136 151 158 162 210 219 214 247 274 295 293 258 213 207 298 250 247 271 281 259 261 287 277 195 80 38 35 29 20
217 209 199 197 194 193 187 179 173 165 162 158 147 138 183 199 209 142 173 200 167 60 48 93 115 130 153 82 213 199 142 164 181 134 152 168 169 193 194 201 194 131 125 158 188 163 157 250 247 255 168 167 177 206 149 116 126 224 124 111 172 188 149 138 190 180 180 287 295 260 234 217 204 279 278 260 275 286 279 290 301 271 218 147 63 39 33 31
205 207 206 202 199 201 194 179 171 168 169 159 142 190 202 200 192 181 179 158 146 130 107 89 93 131 169 138 204 224 202 118 158 143 181 193 190 196 191 202 194 172 157 157 171 158 137 267 279 347 354 177 164 179 147 132 180 179 139 183 219 176 119 109 237 43 80 247 270 219 248 291 326 296 299 319 295 286 300 9 12 17 186 136 65 41 40 55
200 201 209 210 204 206 206 194 174 166 168 160 170 200 203 276 182 184 281 125 140 136 128 134 138 147 167 163 193 209 195 111 155 164 188 197 225 196 191 232 200 186 186 158 169 200 151 237 293 102 195 262 81 117 86 58 131 129 181 212 200 95 83 106 204 353 36 250 274 249 239 280 314 277 309 9 339 293 329 46 66 85 104 99 66 48 50 69
200 198 204 210 208 207 204 199 192 177 156 147 199 210 138 225 204 160 354 74 134 129 128 161 168 143 166 179 190 191 176 160 174 179 174 195 244 194 169 201 202 195 201 177 166 217 146 179 300 56 180 283 20 115 109 359 84 134 178 172 119 127 192 111 158 196 174 246 279 288 269 252 209 226 278 321 285 280 352 79 97 84 80 75 61 55 56 58
197 192 199 204 196 194 195 190 184 178 150 161 206 219 209 225 247 214 104 38 80 118 149 181 165 125 170 174 169 180 184 175 173 181 177 186 235 202 174 183 196 199 199 179 165 209 144 168 260 288 209 312 29 151 195 242 49 78 105 115 97 138 167 165 158 162 177 209 256 299 315 265 224 207 210 230 249 251 133 125 145 95 73 70 59 56 51 40
184 174 189 197 182 178 190 183 168 158 154 223 197 203 241 247 277 251 236 341 41 83 167 201 152 146 171 169 160 173 181 169 169 184 200 185 207 230 195 188 172 186 190 178 171 172 119 166 219 286 316 195 184 206 187 173 161 146 160 172 172 114 115 165 173 124 143 165 205 279 293 266 249 202 184 204 234 224 152 152 174 98 79 71 52 43 34 28
168 158 183 187 177 173 175 172 159 143 154 253 213 177 230 287 311 311 194 186 145 66 115 154 146 159 158 155 177 177 158 152 169 184 208 192 192 227 211 197 169 147 158 170 193 192 142 159 171 175 225 202 228 241 197 187 180 163 183 194 183 159 124 145 232 262 125 164 181 194 274 268 237 201 191 185 190 178 151 149 154 105 82 54 32 31 33 33
162 143 164 173 176 173 164 156 157 153 170 229 213 169 177 265 277 185 105 141 172 43 86 111 127 162 154 157 172 160 150 150 175 184 194 198 193 189 204 198 177 158 150 166 202 185 127 107 127 172 215 216 244 265 225 216 203 134 184 197 169 154 134 149 206 240 192 224 169 132 279 275 197 177 184 157 147 147 142 136 123 91 49 23 19 26 29 24
156 111 148 166 172 170 162 153 178 173 193 203 184 189 188 193 257 204 154 145 169 153 121 114 140 137 146 147 142 159 162 159 180 189 190 200 205 213 208 191 176 160 148 161 193 165 129 108 129 219 303 306 307 325 357 1 119 163 240 168 148 170 151 149 180 180 173 215 168 130 256 268 265 170 155 145 148 141 124 100 58 25 11 9 7 5 2 358
144 107 142 168 169 169 172 189 182 185 198 167 166 195 201 214 243 229 206 185 173 146 125 195 206 122 142 99 118 175 182 167 187 192 184 178 200 217 105 154 176 165 160 186 178 170 183 169 130 132 6 338 331 328 319 332 280 199 228 196 171 148 111 109 144 131 209 224 179 177 241 254 309 18 103 111 140 115 64 35 18 8 6 10 9 2 355 348
140 113 140 178 178 181 195 228 180 178 172 162 174 180 180 213 240 232 226 190 177 171 152 188 137 115 144 80 76 140 143 127 175 176 167 186 211 213 57 109 171 172 185 197 174 167 178 183 152 156 182 205 209 213 218 219 182 203 217 198 188 160 148 155 148 152 230 231 175 190 241 246 271 67 70 36 24 15 5 5 356 351 3 19 11 348 329 320
149 160 166 171 191 204 222 230 185 170 172 175 176 175 179 193 234 225 216 193 189 186 165 165 124 102 108 121 110 171 88 60 101 141 148 181 227 290 47 65 141 147 142 160 163 156 140 194 189 183 201 206 197 210 211 153 151 199 213 192 188 186 179 166 142 191 218 222 202 224 240 253 258 203 120 24 7 340 337 351 340 330 353 351 323 313 307 306
133 218 177 144 193 229 246 242 205 180 172 180 177 171 187 195 205 209 206 203 201 190 165 125 152 158 196 169 150 198 184 62 63 129 152 184 222 291 44 60 92 134 130 125 149 141 105 213 204 185 211 214 175 181 186 151 173 199 199 186 185 188 180 175 199 215 203 195 241 239 219 246 260 242 185 235 277 274 275 289 294 293 301 305 304 302 300 302
194 324 197 165 154 205 220 222 204 191 163 175 188 175 179 193 196 185 199 210 198 186 179 191 192 193 186 164 153 178 156 118 239 181 177 190 190 12 11 22 42 152 157 104 111 115 120 200 211 163 193 213 167 159 151 144 172 177 165 171 178 179 180 193 214 219 195 197 242 245 180 221 259 263 181 180 237 263 267 270 278 282 286 293 299 299 300 305
209 264 244 216 209 208 201 178 170 180 182 166 185 183 175 192 202 194 176 154 178 200 199 212 216 204 188 168 165 180 175 182 218 209 184 170 152 101 54 302 283 344 71 117 107 99 130 192 202 142 159 227 204 187 155 143 138 131 159 173 173 185 196 205 220 221 201 226 261 275 246 245 259 272 224 206 247 274 282 281 284 290 295 296 295 297 303 312
203 228 240 224 267 280 192 153 155 175 200 184 208 220 190 195 200 198 177 164 180 195 197 211 215 190 188 185 177 195 207 196 216 227 168 135 95 176 172 200 177 18 7 59 121 69 151 197 139 114 115 257 217 192 167 157 165 201 219 207 197 205 211 214 223 208 182 251 269 278 284 274 265 268 277 262 235 258 278 285 300 337 351 303 290 298 313 323
203 214 222 137 31 244 184 151 151 164 192 200 208 206 205 211 200 190 196 203 198 183 185 206 205 162 179 195 186 207 217 202 214 227 206 196 209 200 197 191 146 100 14 341 351 19 120 171 59 90 142 254 226 195 181 151 143 204 241 234 222 216 213 209 203 188 189 225 252 261 269 271 266 248 276 273 180 200 274 299 336 6 8 343 348 358 348 341
206 210 220 202 43 247 192 140 148 176 199 211 213 203 199 212 188 171 191 226 214 206 203 200 181 141 171 193 199 213 214 203 215 228 222 219 214 200 200 196 175 168 175 161 130 17 132 133 79 116 193 263 271 182 154 125 135 229 242 235 230 229 227 223 219 215 208 204 222 239 239 257 275 229 256 279 272 242 297 332 356 23 58 44 29 23 10 2